FW7705 Weather Reports


Display with metric or nautical units.
time (UTC)temp
F
wind
direction
speed
MPH
gust
MPH
rain 1hr
in
rain 24hr
in
rain mn
in
humidity
%
barometer
mb
20260905071648 60 348 2.0 2.0 0.00 0.00 0.00 96 1012.9
20260905071143 60 356 1.0 2.0 0.00 0.00 0.00 95 1012.9
20260905070638 60 356 2.0 2.0 0.00 0.00 0.00 96 1012.9
20260905070134 60 356 2.0 3.0 0.00 0.00 0.00 95 1013.0
20260905065632 60 359 0.0 0.0 0.00 0.00 0.00 95 1013.0
20260905065127 60 17 0.0 1.0 0.00 0.00 0.00 95 1013.0
20260905064623 60 17 0.0 1.0 0.00 0.00 0.00 95 1013.2
20260905064118 60 17 1.0 1.0 0.00 0.00 0.00 95 1013.1
20260905063616 60 17 1.0 1.0 0.00 0.00 0.00 95 1012.9
20260905063113 60 17 1.0 1.0 0.00 0.00 0.00 94 1013.1
20260905062609 61 17 2.0 2.0 0.00 0.00 0.00 94 1013.2
20260905062108 61 16 1.0 2.0 0.00 0.00 0.00 94 1013.4
20260905061603 61 18 1.0 1.0 0.00 0.00 0.00 93 1013.3
20260905061102 61 17 1.0 2.0 0.00 0.00 0.00 93 1013.3
20260905060558 61 17 3.0 3.0 0.00 0.00 0.00 92 1013.2
20260905060054 61 13 1.0 1.0 0.00 0.00 0.00 91 1013.1
20260905055553 61 37 2.0 2.0 0.00 0.00 0.00 91 1013.4
20260905055048 61 350 2.0 2.0 0.00 0.00 0.00 90 1013.1
20260905054543 62 25 1.0 1.0 0.00 0.00 0.00 89 1013.4
20260905054039 62 30 1.0 1.0 0.00 0.00 0.00 89 1013.4
20260905053538 62 46 0.0 0.0 0.00 0.00 0.00 88 1013.3
20260905053034 62 46 1.0 2.0 0.00 0.00 0.00 88 1013.3
20260905052533 62 47 1.0 1.0 0.00 0.00 0.00 89 1013.4
20260905052028 61 47 0.0 1.0 0.00 0.00 0.00 89 1013.7
20260905051523 62 47 0.0 1.0 0.00 0.00 0.00 88 1013.7
20260905051020 62 47 0.0 1.0 0.00 0.00 0.00 87 1013.4
20260905050516 62 47 0.0 1.0 0.00 0.00 0.00 87 1013.6
20260905050013 61 50 1.0 1.0 0.00 0.00 0.00 89 1013.7
20260905045507 61 50 1.0 1.0 0.00 0.00 0.00 90 1013.7
20260905045003 60 50 1.0 1.0 0.00 0.00 0.00 89 1013.6
20260905044503 60 50 0.0 1.0 0.00 0.00 0.00 89 1013.5
20260905043957 60 50 0.0 1.0 0.00 0.00 0.00 89 1013.5
20260905043456 61 50 0.0 1.0 0.00 0.00 0.00 88 1013.7
20260905042951 61 50 0.0 1.0 0.00 0.00 0.00 88 1013.7
20260905042450 61 50 0.0 1.0 0.00 0.00 0.00 88 1013.6
20260905041945 61 50 0.0 0.0 0.00 0.00 0.00 89 1013.9
20260905041441 61 50 0.0 0.0 0.00 0.00 0.00 89 1013.9
20260905040936 61 50 0.0 0.0 0.00 0.00 0.00 89 1013.9
20260905040436 61 50 0.0 0.0 0.00 0.00 0.00 89 1013.6
20260905035935 61 50 0.0 0.0 0.00 0.33 0.33 90 1013.8
20260905035430 61 50 0.0 0.0 0.00 0.33 0.33 89 1013.9
20260905034927 61 50 0.0 0.0 0.00 0.33 0.33 89 1013.5
20260905034422 61 50 0.0 0.0 0.00 0.33 0.33 89 1013.6
20260905033921 61 50 0.0 0.0 0.00 0.33 0.33 89 1013.6
20260905033416 61 50 0.0 0.0 0.00 0.33 0.33 89 1013.8
20260905032916 61 50 0.0 0.0 0.00 0.33 0.33 90 1013.7
20260905032412 61 50 0.0 0.0 0.00 0.33 0.33 91 1013.7
20260905031907 61 50 0.0 0.0 0.00 0.33 0.33 92 1013.6
20260905031403 61 50 0.0 0.0 0.00 0.33 0.33 93 1013.7
20260905030857 61 50 0.0 0.0 0.00 0.33 0.33 91 1013.6
20260905030353 61 50 0.0 0.0 0.00 0.33 0.33 92 1013.7
20260905025852 61 50 0.0 0.0 0.00 0.33 0.33 92 1013.6
20260905025347 61 50 0.0 0.0 0.00 0.33 0.33 92 1013.4
20260905024844 61 50 0.0 0.0 0.00 0.33 0.33 93 1013.6
20260905024339 61 50 0.0 0.0 0.00 0.33 0.33 94 1013.6
20260905023834 61 50 0.0 0.0 0.00 0.33 0.33 93 1013.6
20260905023330 61 50 0.0 0.0 0.00 0.33 0.33 92 1013.6
20260905022828 62 50 0.0 0.0 0.00 0.33 0.33 91 1013.4
20260905022324 62 50 0.0 0.0 0.00 0.33 0.33 90 1013.5
20260905021819 63 50 0.0 0.0 0.00 0.33 0.33 90 1013.4
20260905021314 63 50 0.0 0.0 0.00 0.33 0.33 87 1013.6
20260905020813 64 50 0.0 0.0 0.00 0.33 0.33 88 1013.6
20260905020309 64 50 0.0 0.0 0.00 0.33 0.33 87 1013.7
20260905015807 64 50 0.0 0.0 0.00 0.33 0.33 87 1013.7
20260905015306 64 50 0.0 1.0 0.00 0.33 0.33 87 1014.0
20260905014801 64 50 0.0 1.0 0.00 0.33 0.33 88 1013.8
20260905014257 64 50 0.0 0.0 0.00 0.33 0.33 89 1014.0
20260905013752 65 50 0.0 0.0 0.00 0.33 0.33 89 1014.0
20260905013248 65 50 0.0 0.0 0.00 0.33 0.33 89 1014.1
20260905012743 65 50 0.0 0.0 0.00 0.33 0.33 88 1014.3
20260905012239 65 50 0.0 0.0 0.00 0.33 0.33 88 1013.9
20260905011736 65 50 0.0 0.0 0.00 0.33 0.33 88 1014.0
20260905011231 64 50 0.0 0.0 0.00 0.33 0.33 88 1013.7
20260905010731 65 50 0.0 0.0 0.00 0.33 0.33 89 1013.6
20260905010226 65 50 0.0 0.0 0.00 0.33 0.33 88 1013.6
20260905005723 65 50 0.0 0.0 0.00 0.33 0.33 87 1013.8
20260905005219 65 50 0.0 0.0 0.00 0.33 0.33 85 1013.8
20260905004712 65 50 0.0 0.0 0.00 0.33 0.33 85 1013.8
20260905004208 66 50 0.0 0.0 0.00 0.33 0.33 85 1013.7
20260905003703 66 50 0.0 0.0 0.00 0.33 0.33 85 1013.8
20260905003159 66 50 0.0 0.0 0.00 0.33 0.33 83 1013.6
20260905002654 66 50 0.0 0.0 0.00 0.33 0.33 83 1013.8
20260905002154 66 50 0.0 1.0 0.00 0.33 0.33 83 1013.8
20260905001649 66 50 0.0 0.0 0.00 0.33 0.33 83 1013.7
20260905001148 66 50 0.0 0.0 0.00 0.33 0.33 82 1013.5
20260905000644 66 50 1.0 1.0 0.00 0.33 0.33 81 1013.4
20260905000140 66 51 1.0 2.0 0.00 0.33 0.33 82 1013.6
20260904235639 67 55 0.0 0.0 0.00 0.33 0.33 82 1013.2
20260904235138 67 55 0.0 0.0 0.00 0.33 0.33 82 1013.3
20260904234634 67 58 0.0 0.0 0.00 0.33 0.33 82 1013.4
20260904234130 67 59 1.0 1.0 0.00 0.33 0.33 82 1013.4
20260904233625 68 59 1.0 1.0 0.00 0.33 0.33 82 1013.4
20260904233121 68 72 1.0 2.0 0.00 0.33 0.33 79 1013.3
20260904232617 68 24 0.0 1.0 0.00 0.33 0.33 79 1013.3
20260904232113 68 24 1.0 1.0 0.00 0.33 0.33 78 1013.3
20260904231609 68 24 0.0 0.0 0.00 0.33 0.33 79 1013.5
20260904231109 69 24 0.0 0.0 0.00 0.33 0.33 78 1013.5
20260904230608 69 24 0.0 0.0 0.00 0.33 0.33 76 1013.3
20260904230104 69 22 2.0 3.0 0.00 0.33 0.33 76 1013.5
20260904225601 69 24 2.0 2.0 0.00 0.33 0.33 75 1013.3
20260904225056 70 28 1.0 1.0 0.00 0.33 0.33 74 1013.2
20260904224551 71 31 1.0 1.0 0.00 0.33 0.33 72 1013.1
20260904224046 71 38 2.0 3.0 0.00 0.33 0.33 71 1013.2
20260904223545 72 73 2.0 2.0 0.00 0.33 0.33 70 1013.2
20260904223041 73 18 1.0 1.0 0.00 0.33 0.33 68 1013.2
20260904222536 73 22 3.0 4.0 0.00 0.33 0.33 69 1013.3
20260904222031 73 309 2.0 2.0 0.00 0.33 0.33 70 1013.1
20260904221526 73 53 2.0 2.0 0.00 0.33 0.33 69 1013.3
20260904221021 73 39 2.0 2.0 0.00 0.33 0.33 71 1013.0
20260904220521 73 50 2.0 2.0 0.00 0.33 0.33 70 1013.1
20260904220016 73 40 1.0 2.0 0.00 0.33 0.33 70 1013.1
20260904215511 72 340 1.0 2.0 0.00 0.33 0.33 70 1013.1
20260904215006 73 331 2.0 2.0 0.00 0.33 0.33 70 1013.1
20260904214501 73 296 4.0 4.0 0.00 0.33 0.33 67 1013.1
20260904213956 73 39 2.0 3.0 0.00 0.33 0.33 67 1013.0
20260904213455 74 1 4.0 4.0 0.00 0.33 0.33 68 1013.1
20260904212951 74 359 4.0 6.0 0.00 0.33 0.33 67 1013.0
20260904212451 74 2 2.0 3.0 0.00 0.33 0.33 68 1013.2
20260904211946 76 66 4.0 6.0 0.00 0.33 0.33 65 1012.9
20260904211446 76 293 4.0 4.0 0.00 0.33 0.33 63 1012.8
20260904210942 75 332 1.0 1.0 0.00 0.33 0.33 65 1013.0
20260904210440 75 325 4.0 6.0 0.00 0.33 0.33 64 1012.9
20260904205936 76 358 9.0 10.0 0.00 0.33 0.33 62 1013.3
20260904205432 76 347 3.0 4.0 0.00 0.33 0.33 63 1013.3
20260904204929 76 237 3.0 4.0 0.00 0.33 0.33 63 1013.2
20260904204424 75 332 6.0 8.0 0.00 0.33 0.33 62 1013.2
20260904203920 75 307 2.0 3.0 0.00 0.33 0.33 64 1013.3
20260904203417 76 330 4.0 6.0 0.00 0.33 0.33 63 1013.4
20260904202912 76 347 5.0 6.0 0.00 0.33 0.33 63 1013.2
20260904202408 76 306 6.0 8.0 0.00 0.33 0.33 62 1013.2
20260904201904 75 235 2.0 3.0 0.00 0.33 0.33 62 1013.5
20260904201359 76 331 6.0 7.0 0.00 0.33 0.33 62 1013.5
20260904200854 76 217 2.0 3.0 0.00 0.33 0.33 61 1013.6
20260904200352 76 345 1.0 1.0 0.00 0.33 0.33 64 1013.6
20260904195847 76 285 4.0 4.0 0.00 0.33 0.33 62 1013.7
20260904195345 75 338 8.0 10.0 0.00 0.33 0.33 64 1013.7
20260904194840 74 331 4.0 4.0 0.00 0.33 0.33 66 1013.9
20260904194340 75 297 6.0 7.0 0.00 0.33 0.33 63 1013.8
20260904193835 77 287 6.0 8.0 0.00 0.33 0.33 61 1013.7
20260904193331 77 268 3.0 4.0 0.00 0.33 0.33 63 1013.8
20260904192826 76 351 4.0 4.0 0.00 0.33 0.33 66 1014.0
20260904192321 75 259 6.0 9.0 0.00 0.33 0.33 65 1013.7
20260904191818 75 279 9.0 9.0 0.00 0.33 0.33 63 1014.3
20260904191314 74 332 2.0 3.0 0.00 0.33 0.33 68 1014.0
20260904190810 73 352 3.0 3.0 0.00 0.33 0.33 68 1014.1
20260904190306 74 301 6.0 7.0 0.00 0.33 0.33 67 1014.0
20260904185802 74 11 3.0 3.0 0.00 0.33 0.33 68 1013.9
20260904185257 74 2 2.0 4.0 0.00 0.33 0.33 67 1014.0
20260904184756 74 20 3.0 3.0 0.00 0.33 0.33 66 1014.1
20260904184252 76 322 4.0 7.0 0.00 0.33 0.33 64 1014.0
20260904183747 75 15 4.0 6.0 0.00 0.33 0.33 65 1014.0
20260904183242 75 7 5.0 7.0 0.00 0.33 0.33 67 1014.0
20260904182743 74 343 4.0 4.0 0.00 0.33 0.33 68 1014.0
20260904182238 75 339 7.0 10.0 0.00 0.33 0.33 64 1014.4
20260904181733 75 320 5.0 6.0 0.00 0.33 0.33 66 1014.6
20260904181233 75 8 2.0 3.0 0.00 0.33 0.33 70 1014.4
20260904180729 74 271 4.0 4.0 0.00 0.33 0.33 68 1014.5
20260904180224 75 265 4.0 6.0 0.00 0.33 0.33 66 1014.3
20260904175723 75 311 5.0 6.0 0.00 0.33 0.33 68 1014.5
20260904175221 76 288 5.0 7.0 0.00 0.33 0.33 64 1014.5
20260904174716 75 227 5.0 7.0 0.00 0.33 0.33 65 1014.8
20260904174213 75 264 5.0 6.0 0.00 0.33 0.33 65 1014.7
20260904173708 75 297 4.0 6.0 0.00 0.33 0.33 66 1014.9
20260904173203 74 44 6.0 7.0 0.00 0.33 0.33 66 1014.7
20260904172659 73 356 2.0 3.0 0.00 0.33 0.33 69 1014.8
20260904172158 74 70 4.0 6.0 0.00 0.33 0.33 65 1015.0
20260904171654 75 274 2.0 3.0 0.00 0.33 0.33 65 1014.9
20260904171154 73 298 2.0 3.0 0.00 0.33 0.33 70 1014.7
20260904170651 74 22 6.0 7.0 0.00 0.33 0.33 68 1014.8
20260904170146 74 275 3.0 3.0 0.00 0.33 0.33 67 1014.9
20260904165644 73 282 4.0 4.0 0.00 0.33 0.33 70 1014.9
20260904165144 73 295 6.0 10.0 0.00 0.33 0.33 69 1014.9
20260904164639 74 312 7.0 8.0 0.00 0.33 0.33 67 1014.8
20260904164135 72 286 4.0 4.0 0.00 0.33 0.33 72 1015.0
20260904163630 73 289 5.0 6.0 0.00 0.33 0.33 72 1014.9
20260904163126 73 339 2.0 3.0 0.00 0.33 0.33 70 1014.6
20260904162626 74 27 2.0 3.0 0.00 0.33 0.33 69 1014.7
20260904162126 74 272 5.0 7.0 0.00 0.33 0.33 68 1014.8
20260904161621 73 15 3.0 4.0 0.00 0.33 0.33 71 1014.9
20260904161116 74 11 6.0 8.0 0.00 0.33 0.33 68 1014.8
20260904160612 73 340 5.0 9.0 0.00 0.33 0.33 73 1014.9
20260904160108 73 316 3.0 3.0 0.00 0.33 0.33 73 1014.7
20260904155602 73 307 3.0 3.0 0.00 0.33 0.33 74 1014.9
20260904155056 73 12 2.0 3.0 0.00 0.33 0.33 76 1014.7
20260904154550 72 47 2.0 3.0 0.00 0.33 0.33 73 1014.8
20260904154044 71 285 2.0 3.0 0.00 0.33 0.33 78 1014.7
20260904153543 71 31 2.0 3.0 0.00 0.33 0.33 77 1014.9
20260904153040 71 325 5.0 7.0 0.00 0.33 0.33 77 1015.0
20260904152536 72 309 4.0 6.0 0.00 0.33 0.33 76 1015.1
20260904152031 71 17 2.0 3.0 0.00 0.33 0.33 79 1015.1
20260904151527 70 303 3.0 4.0 0.00 0.33 0.33 80 1015.1
20260904151026 70 291 6.0 7.0 0.00 0.33 0.33 80 1015.1
20260904150521 70 303 5.0 6.0 0.00 0.33 0.33 79 1015.0
20260904150021 70 258 2.0 3.0 0.00 0.33 0.33 80 1015.1
20260904145515 70 324 4.0 4.0 0.00 0.33 0.33 82 1014.9
20260904145010 70 295 3.0 4.0 0.00 0.33 0.33 81 1014.9
20260904144506 70 273 3.0 3.0 0.00 0.33 0.33 81 1015.1
20260904144002 70 359 2.0 3.0 0.00 0.33 0.33 83 1014.9
20260904143457 69 37 2.0 2.0 0.00 0.33 0.33 83 1015.1
20260904142954 69 357 3.0 3.0 0.00 0.33 0.33 82 1015.0
20260904142450 70 313 3.0 4.0 0.00 0.33 0.33 81 1015.0
20260904141950 70 83 2.0 2.0 0.00 0.33 0.33 84 1014.9
20260904141445 69 49 2.0 3.0 0.00 0.33 0.33 83 1015.0
20260904140941 68 341 2.0 3.0 0.00 0.33 0.33 86 1015.1
20260904140441 68 27 2.0 4.0 0.00 0.33 0.33 86 1015.4
20260904135940 67 14 2.0 3.0 0.00 0.33 0.33 86 1015.3
20260904135440 68 342 4.0 6.0 0.00 0.33 0.33 85 1015.2
20260904134936 69 261 4.0 7.0 0.00 0.33 0.33 85 1015.0
20260904134436 69 295 5.0 7.0 0.00 0.33 0.33 85 1015.1
20260904133931 69 9 4.0 6.0 0.00 0.33 0.33 85 1015.0
20260904133426 68 359 3.0 3.0 0.00 0.33 0.33 86 1015.2
20260904132921 68 325 4.0 4.0 0.00 0.33 0.33 86 1015.0
20260904132416 67 283 4.0 6.0 0.00 0.33 0.33 88 1014.8
20260904131916 67 279 4.0 4.0 0.00 0.33 0.33 89 1014.9
20260904131411 66 31 2.0 3.0 0.00 0.33 0.33 91 1014.9
20260904130907 66 236 2.0 3.0 0.00 0.33 0.33 89 1014.8
20260904130406 66 334 2.0 2.0 0.00 0.33 0.33 89 1015.1
20260904125901 66 332 4.0 4.0 0.00 0.33 0.33 89 1015.0
20260904125357 66 346 4.0 6.0 0.00 0.33 0.33 90 1014.9
20260904124856 66 294 6.0 7.0 0.00 0.33 0.33 89 1015.0
20260904124353 66 332 5.0 7.0 0.00 0.33 0.33 91 1015.0
20260904123848 66 296 2.0 2.0 0.00 0.33 0.33 91 1015.0
20260904123343 66 290 3.0 4.0 0.00 0.33 0.33 91 1014.7
20260904122838 66 311 3.0 4.0 0.00 0.33 0.33 91 1015.0
20260904122333 66 295 4.0 4.0 0.00 0.33 0.33 91 1015.2
20260904121828 66 330 2.0 2.0 0.00 0.33 0.33 92 1014.8
20260904121324 66 58 2.0 3.0 0.00 0.33 0.33 92 1014.9
20260904120820 65 338 1.0 2.0 0.00 0.33 0.33 92 1014.9
20260904120316 65 347 2.0 2.0 0.00 0.33 0.33 92 1014.9
20260904115816 64 82 1.0 1.0 0.00 0.33 0.33 93 1014.7
20260904115312 64 26 3.0 3.0 0.00 0.33 0.33 94 1014.9
20260904114811 63 109 0.0 0.0 0.00 0.33 0.33 95 1014.9
20260904114306 63 107 1.0 1.0 0.00 0.33 0.33 96 1014.6
20260904113801 63 108 0.0 0.0 0.00 0.33 0.33 97 1014.8
20260904113259 62 107 0.0 0.0 0.00 0.33 0.33 97 1014.6
20260904112755 62 108 1.0 1.0 0.00 0.33 0.33 97 1014.8
20260904112250 63 107 1.0 1.0 0.00 0.33 0.33 97 1014.8
20260904111746 63 107 0.0 0.0 0.00 0.33 0.33 97 1014.7
20260904111242 63 109 0.0 1.0 0.00 0.33 0.33 97 1014.6
20260904110737 63 110 0.0 0.0 0.00 0.33 0.33 96 1014.6
20260904110236 63 109 0.0 0.0 0.00 0.33 0.33 96 1014.6
20260904105731 63 83 1.0 2.0 0.00 0.33 0.33 96 1014.3
20260904105226 64 69 0.0 0.0 0.00 0.33 0.33 96 1014.4
20260904104721 64 92 1.0 1.0 0.00 0.33 0.33 96 1014.5
20260904104217 64 165 1.0 1.0 0.00 0.33 0.33 95 1014.5
20260904103714 64 34 3.0 3.0 0.00 0.33 0.33 95 1014.4
20260904103208 64 324 0.0 1.0 0.00 0.33 0.33 95 1014.5
20260904102704 64 332 0.0 1.0 0.00 0.33 0.33 94 1014.3
20260904102159 65 340 2.0 2.0 0.00 0.33 0.33 95 1014.5
20260904101656 65 347 2.0 3.0 0.00 0.33 0.33 95 1014.3
20260904101152 65 29 0.0 0.0 0.00 0.33 0.33 97 1014.0
20260904100647 65 29 0.0 1.0 0.00 0.33 0.33 97 1014.3
20260904100143 66 301 0.0 1.0 0.00 0.33 0.33 98 1014.1
20260904095642 66 331 1.0 1.0 0.00 0.33 0.33 98 1014.0
20260904095137 66 15 0.0 0.0 0.00 0.33 0.33 99 1014.3
20260904094632 66 15 1.0 1.0 0.00 0.33 0.33 99 1013.9
20260904094127 66 15 0.0 0.0 0.00 0.33 0.33 99 1014.1
20260904093625 66 15 0.0 1.0 0.00 0.33 0.33 99 1014.4
20260904093124 66 15 1.0 1.0 0.00 0.33 0.33 99 1013.9
20260904092620 66 15 2.0 2.0 0.00 0.33 0.33 99 1013.9
20260904092116 66 348 2.0 2.0 0.00 0.33 0.33 99 1013.9
20260904091612 66 348 0.0 1.0 0.00 0.33 0.33 99 1013.9
20260904091112 66 348 1.0 1.0 0.00 0.33 0.33 99 1013.9
20260904090607 66 348 0.0 1.0 0.00 0.33 0.33 99 1014.0
20260904085557 66 348 0.0 0.0 0.00 0.33 0.33 99 1013.7
20260904085056 66 348 1.0 1.0 0.00 0.33 0.33 99 1013.9
20260904084552 66 348 1.0 2.0 0.00 0.33 0.33 99 1013.9
20260904084049 66 348 1.0 1.0 0.00 0.33 0.33 99 1013.8
20260904083544 65 348 0.0 1.0 0.00 0.33 0.33 99 1013.7
20260904083040 65 348 0.0 1.0 0.00 0.33 0.33 99 1013.6
20260904082535 65 348 2.0 2.0 0.00 0.33 0.33 99 1013.6
20260904082030 65 349 0.0 0.0 0.00 0.33 0.33 99 1013.3
20260904081526 65 348 1.0 1.0 0.00 0.33 0.33 99 1013.2
20260904081021 65 349 1.0 1.0 0.00 0.33 0.33 99 1013.4
20260904080516 65 349 0.0 1.0 0.00 0.33 0.33 99 1013.0
20260904080013 65 349 0.0 0.0 0.00 0.33 0.33 99 1013.2
20260904075508 65 349 0.0 0.0 0.00 0.33 0.33 99 1013.1
20260904075003 65 349 0.0 0.0 0.00 0.33 0.33 99 1013.0
20260904074457 65 349 0.0 1.0 0.00 0.33 0.33 99 1013.1
20260904073952 65 349 0.0 0.0 0.00 0.33 0.33 99 1012.9
20260904073447 65 349 0.0 0.0 0.00 0.33 0.33 99 1013.1
20260904072943 65 348 1.0 1.0 0.00 0.33 0.33 99 1013.1
20260904072438 66 349 0.0 0.0 0.00 0.33 0.33 99 1013.0
20260904071933 65 348 0.0 0.0 0.00 0.33 0.33 99 1012.8